Regional Weather Roundup
Issued by NWS

Home | Current Version | Previous Version | Graphics & Text | Print | Product List | Glossary On
Versions: 1 2 3 4 5 6 7 8 9 10 11 12 13 14 15 16 17 18 19 20 21 22 23 24 25 26 27 28 29 30 31 32 33 34 35 36 37 38 39 40 41 42 43 44 45 46 47 48 49 50
000
ASUS45 KTFX 210704
RWRMT
MONTANA HOURLY WEATHER ROUNDUP
NATIONAL WEATHER SERVICE GREAT FALLS MT
1204 AM MST SUN DEC 21 2014

NOTE: "FAIR" INDICATES FEW OR NO CLOUDS BELOW 12000 FEET WITH NO
SIGNIFICANT WEATHER AND/OR OBSTRUCTIONS TO VISIBILITY.

* THESE STATIONS ARE NOT UNDER NWS QUALITY CONTROL. THEY DO NOT
   REPORT WEATHER SUCH AS PRECIPITATION OR FOG.

MTZ001>007-043-210800-
WEST OF THE DIVIDE
CITY           SKY/WX    TMP DP  RH WIND       PRES   REMARKS
KALISPELL      LGT RAIN  34  32  92 S5        29.55F WCI  29
MISSOULA       FRZ RAIN  30  30 100 CALM      29.64F VSB 3
BUTTE          CLOUDY    34  25  70 S10       29.66F WCI  26
MULLAN PASS    SNOW      30  27  89 VRB7G22   29.51F VSB 1/2  WCI  23
* ESSEX        N/A       31  30  96 N/A        N/A
* LINCOLN      N/A       31  30  96 SE2G11     N/A
* LOOKOUT PASS N/A       32  32 100 SE4G11     N/A
* POLSON       N/A       35  35 100 SE1        N/A
* RONAN APT    CLOUDY    34  34 100 N/A        N/A
* SEELEY LAKE  N/A       28  27  96 N/A        N/A
* THOMP F APT  CLOUDY    29  28  96 S9G14      N/A   WCI  21
$$

MTZ008-052>055-210800-
SOUTHWEST MONTANA
CITY           SKY/WX    TMP DP  RH WIND       PRES   REMARKS
BOZEMAN        CLOUDY    34  27  76 SE5       29.66F WCI  29
DILLON         CLOUDY    36  27  70 SW10      29.69F WCI  29
* W YELLOWSTON CLOUDY    29  27  92 SW5G12     N/A   WCI  24
* THREE FORKS  CLOUDY    41  41 100 S18G32     N/A
* BOULDER HILL N/A       33  23  67 S16        N/A   WCI  23
* MONIDA PASS  N/A       28  28 100 SE22       N/A   WCI  14
* RAYNOLDS PAS N/A       30  16  56 S12G19     N/A   WCI  20
* WHITEHALL    N/A       41  25  53 W11G21     N/A
* WISE RIVER   N/A       29  27  92 NW3        N/A
$$

MTZ009>010-012-014-046-048-049-054-210800-
EAST SLOPES AND CENTRAL MONTANA
CITY           SKY/WX    TMP DP  RH WIND       PRES   REMARKS
CUT BANK       CLOUDY    30  25  82 S9        29.43F WCI  22
GREAT FALLS    CLOUDY    39  27  62 S10       29.49F WCI  32
HELENA         MOCLDY    34  27  76 W5        29.60F WCI  29
* DEARBORN     N/A       45  27  49 SW9G24     N/A
* EAST GLACIER N/A       37  27  67 W25G35     N/A   WCI  25
* MONARCH      N/A       36  18  48 SW21G26    N/A   WCI  25
* PENDROY      N/A       35  29  79 S11        N/A   WCI  27
* ROGERS PASS  N/A       31  28  89 SE14G23    N/A   WCI  21
* SWEET GRASS  N/A       28  22  78 S16        N/A   WCI  16
$$

MTZ011-013-016-021-035-040-045-047-050-051-210800-
NORTH CENTRAL MONTANA
CITY           SKY/WX    TMP DP  RH WIND       PRES   REMARKS
HAVRE          PTCLDY    27  21  78 CALM      29.50F
LEWISTOWN      CLOUDY    41  25  53 SW20      29.56F
* N BAR RANCH  CLOUDY    39  21  48 VRB5      29.60F WCI  35
* CHESTER      N/A       22  18  85 N/A        N/A
* DENTON       N/A       36  25  64 S9         N/A   WCI  29
* GEYSER       N/A       34  21  59 E3         N/A
* JUDITH GAP   N/A       31  26  82 SE12G17    N/A   WCI  22
* LOMA         N/A       28  24  85 NE10       N/A   WCI  19
$$

MTZ017>020-022>027-061-062-210800-
NORTHEAST MONTANA
CITY           SKY/WX    TMP DP  RH WIND       PRES   REMARKS
GLASGOW        CLEAR     25  19  78 E10       29.60F WCI  15
GLENDIVE       CLEAR     23  18  81 S6        29.68F WCI  16
JORDAN         CLEAR     19  18  96 CALM      29.62F
SIDNEY         CLEAR     23  19  85 CALM      29.70F
WOLF POINT     CLEAR     18  14  84 NE5       29.66F WCI  11
* BEAVER HILL  N/A       33  22  64 S12        N/A   WCI  24
* CIRCLE       N/A       29  23  78 N/A        N/A
* LINDSAY DVD  N/A       30  21  69 S8         N/A   WCI  22
* SACO         N/A       23  19  85 E9         N/A   WCI  13
$$

MTZ028>042-056>058-210800-
SOUTHCENTRAL AND SOUTHEAST MONTANA
CITY           SKY/WX    TMP DP  RH WIND       PRES   REMARKS
BAKER          FAIR      23  21  92 SE6       29.70F WCI  16
BILLINGS       CLOUDY    34  21  59 SW15      29.65F WCI  24
LIVINGSTON     CLOUDY    45  25  45 SW26G36   29.62F
MILES CITY     CLEAR     28  21  75 SE8       29.67F WCI  20
* LAUREL APT   CLOUDY    30  16  56 N/A        N/A
* ROUNDUP APT  CLOUDY    36  21  54 S7         N/A   WCI  30
* ALZADA       N/A       28  23  81 W1         N/A
* HYSHAM       N/A       36  18  48 W4         N/A
* LAME DEER    N/A       31  22  69 SW4        N/A
* REED POINT   N/A       26  24  92 N/A        N/A
* ROSCOE HILL  N/A       43  13  29 SW20G36    N/A
$$

REGIONAL REPORTS...DAKOTAS
CITY           SKY/WX    TMP DP  RH WIND       PRES   REMARKS
WILLISTON      PTCLDY    18  16  92 SW3       29.68F
DICKINSON      CLEAR     25  18  75 S7        29.69F WCI  17
BEACH          MOCLDY    23  23 100 S6        29.70F WCI  16
CROSBY         CLEAR     25  25 100 S10       29.67F WCI  15
WATFORD CITY   CLEAR     23  19  85 SW6       29.67F WCI  16
BISMARCK       PTCLDY    18  18 100 CALM      29.77F
GRAND FORKS    LGT SNOW  30  28  92 S14       29.81F WCI  19
FARGO          FOG       32  28  85 S14       29.87F WCI  22
BUFFALO SD     PTCLDY    30  23  75 S7        29.66F WCI  23
RAPID CITY     MOCLDY    28  25  89 SE5       29.74F WCI  22
$$

REGIONAL REPORTS...WYOMING/IDAHO/WASHINGTON
CITY           SKY/WX    TMP DP  RH WIND       PRES   REMARKS
GILLETTE       CLEAR     36  19  50 SW16      29.72F WCI  26
SHERIDAN       MOCLDY    25  18  75 CALM      29.69F
CODY           MOCLDY    43  23  45 W14G22    29.71F
YELLOWSTONE LA CLOUDY    27  23  85 CALM      29.83F
SALMON         CLOUDY    36  30  79 SE9       29.75F WCI  29
MULLAN PASS    SNOW      30  27  89 VRB7G22   29.51S VSB 1/2  WCI  23
SAND POINT     LGT RAIN  36  36 100 W3        29.53F
SPOKANE        CLOUDY    45  45 100 S22G29    29.48F

$$



USA.gov is the U.S. government's official web portal to all federal, state and local government web resources and services.